Flag for Germany Weather past 2 weeks in Schwäbisch Hall, Baden-Württemberg, Germany

Now
33 °F

Fog.


Feels Like: 33 °F
Forecast: 31 / 35 °F
Wind: 2 mph from West

Location: Oehringen

Current Time: Jan 25, 2015 at 11:22:16 AM

Latest Report: Jan 25, 2015 at 11:00 AM


Visibility: 3 mi

Pressure: 30.45 "Hg

Humidity: 92%

Dew point: 31 °F

Location of Schwäbisch HallLocation

Historic Weather in Schwäbisch Hall — Graph

°F

Schwäbisch Hall temperature yesterday

Maximum temperature yesterday: 34 °F (at 4:00 PM)
Minimum temperature yesterday: 31 °F (at 7:00 PM)
Average temperature yesterday: 32 °F

Past Weeks' High & Low Weather Summary

 TemperatureHumidityPressure
High59 °F (Jan 13, 3:00 PM)100% (Jan 16, 6:00 PM)30.44 "Hg (Jan 16, 6:00 PM)
Low27 °F (Jan 21, 4:00 AM)29% (Jan 13, 2:00 PM)29.71 "Hg (Jan 15, 8:00 PM)
Average39 °F81%30.02 "Hg
* Reported Jan 10 10:00 AM — Jan 25 10:00 AM, Schwäbisch Hall, Weather by CustomWeather, © 2014

Note: Actual official high and low records may vary slightly from our data, if they occured in-between our weather recording intervals... More about our weather records

Advertising

Schwäbisch Hall weather history for previous 24 hours

 ConditionsComfort  
Time TempWeatherWind HumidityBarometerVisibility
10:00 AM
Jan 25
33 °FOvercast.2 mph94%30.44 "Hg2 mi
9:00 AM32 °FFog.2 mph96%30.44 "Hg2 mi
8:00 AM32 °FOvercast.2 mph98%30.42 "Hg1 mi
7:00 AM32 °FFog.2 mph97%30.40 "Hg1 mi
6:00 AM32 °FFog.2 mph98%30.38 "Hg2 mi
4:00 AM32 °FFog.2 mph98%30.34 "Hg1 mi
3:00 AM31 °FFog.2 mph98%30.33 "Hg1 mi
2:00 AM32 °FLow clouds.3 mph98%30.31 "Hg1 mi
1:00 AM32 °FLight snow. Low clouds.2 mph98%30.29 "Hg1 mi
12:00 AM31 °FSnow. Low clouds.2 mph98%30.28 "Hg1 mi
11:00 PM
Jan 24
31 °FLight snow. Low clouds.3 mph98%30.27 "Hg1 mi
10:00 PM32 °FLight snow. Low clouds.3 mph95%30.26 "Hg1 mi
9:00 PM31 °FLight snow. Low clouds.3 mph96%30.25 "Hg1 mi
8:00 PM31 °FLight snow. Low clouds.5 mph95%30.24 "Hg2 mi
7:00 PM31 °FLight snow. Low clouds.5 mph96%30.21 "Hg1 mi
6:00 PM32 °FLight snow. Overcast.5 mph92%30.19 "Hg1 mi
5:00 PM34 °FFog.3 mph81%30.16 "Hg4 mi
4:00 PM34 °FOvercast.5 mph77%30.14 "Hg6 mi
3:00 PM34 °FOvercast.3 mph78%30.14 "Hg6 mi
2:00 PM34 °FOvercast.3 mph78%30.14 "Hg6 mi
1:00 PM34 °FOvercast.3 mph78%30.16 "Hg6 mi
12:00 PM33 °FOvercast.3 mph83%30.18 "Hg5 mi
11:00 AM33 °FFog.3 mph86%30.20 "Hg4 mi
Weather by CustomWeather, © 2014

See weather overviewHow to use our weather pages